This demonstration page uses our WeatherBlox Daily Observations layout. Learn more.

Left ArrowRight Arrow

Hourly Observations for January 9, 2020

Temp ( °F °C ) Dew Point ( °F °C ) Humidity (%) Winds ( mph kmh ) Pressure ( in mb ) Visibility ( mi km ) Precip ( " mm )
12:53 am 00:53 Clear 45 7.2 33 0.6 63 63 S 10 17 29.56 1001 10 16 0.00 0.00
1:53 am 01:53 Clear 42 5.6 33 0.6 71 71 S 8 13 29.54 1001 10 16 0.00 0.00
2:53 am 02:53 Clear 42 5.6 34 1.1 73 73 S 8 13 29.52 1000 10 16 0.00 0.00
3:53 am 03:53 Clear 39 3.9 33 0.6 79 79 S 6 9 29.51 999 10 16 0.00 0.00
4:53 am 04:53 Clear 34 1.1 31 -0.6 89 89 Calm 29.52 1000 10 16 0.00 0.00
5:53 am 05:53 Clear 31 -0.6 27 -2.8 85 85 W 13 20 29.58 1002 10 16 0.00 0.00
6:53 am 06:53 Clear 32 0 26 -3.3 79 79 WNW 16 26 29.60 1002 10 16 0.00 0.00
7:53 am 07:53 Clear 32 0 25 -3.9 75 75 WNW 14 22 29.64 1004 10 16 0.00 0.00
8:53 am 08:53 Sunny 32 0 25 -3.9 75 75 WNW 14 22 29.70 1006 10 16 0.00 0.00
9:53 am 09:53 Sunny 35 1.7 28 -2.2 76 76 W 8 13 29.75 1008 10 16 0.00 0.00
10:53 am 10:53 Sunny 40 4.4 30 -1.1 68 68 WNW 12 19 29.79 1009 10 16 0.00 0.00
11:53 am 11:53 Sunny 42 5.6 30 -1.1 62 62 NW 15 24 29.76 1008 10 16 0.00 0.00
12:53 pm 12:53 Sunny 42 5.6 30 -1.1 62 62 WNW 13 20 29.80 1009 10 16 0.00 0.00
1:53 pm 13:53 Sunny 43 6.1 30 -1.1 60 60 NW 12 19 29.81 1009 10 16 0.00 0.00
2:53 pm 14:53 Sunny 45 7.2 31 -0.6 58 58 WNW 8 13 29.84 1010 10 16 0.00 0.00
3:53 pm 15:53 Sunny 45 7.2 31 -0.6 58 58 NNW 9 15 29.85 1011 10 16 0.00 0.00
4:53 pm 16:53 Sunny 41 5 30 -1.1 65 65 N 6 9 29.89 1012 10 16 0.00 0.00
5:53 pm 17:53 Clear 35 1.7 28 -2.2 76 76 NNW 5 7 29.94 1014 10 16 0.00 0.00
6:53 pm 18:53 Clear 33 0.6 27 -2.8 78 78 NNW 6 9 29.96 1015 10 16 0.00 0.00
7:53 pm 19:53 Clear 30 -1.1 26 -3.3 85 85 N 3 6 29.98 1015 10 16 0.00 0.00
8:53 pm 20:53 Clear 32 0 28 -2.2 85 85 NE 6 9 29.99 1016 10 16 0.00 0.00
9:53 pm 21:53 Clear 32 0 27 -2.8 82 82 NE 12 19 30.00 1016 10 16 0.00 0.00
10:53 pm 22:53 Mostly Clear 30 -1.1 27 -2.8 88 88 NE 12 19 30.01 1016 10 16 0.00 0.00
11:53 pm 23:53 Mostly Cloudy 29 -1.7 26 -3.3 89 89 NE 9 15 30.01 1016 10 16 0.00 0.00

Powered by AerisWeather